Borger, TX

6:50 PM CST on January 21, 2018 (GMT -0600)
Hutchinson County

Weather History for KBGD - May, 2013

Change the Weather History Date:

Saturday, May 11, 2013

  Actual Average Record
Temperature  
Mean Temperature 63 °F 66 °F  
Max Temperature 77 °F 79 °F 100 °F (1962)
Min Temperature 49 °F 54 °F 39 °F (2008)
Degree Days  
Heating Degree Days 2 3  
Month to date heating degree days 78 37  
Since 1 July heating degree days 3591 3740  
Cooling Degree Days 0 4  
Month to date cooling degree days 12 35  
Year to date cooling degree days 58 79  
Growing Degree Days 12 (Base 50)    
Moisture  
Dew Point 42 °F    
Average Humidity 53    
Maximum Humidity 80    
Minimum Humidity 25    
Precipitation  
Precipitation 0.02 in 0.08 in 1.61 in (2016)
Month to date precipitation 0.77 0.62  
Year to date precipitation 4.16 4.78  
Snow  
Snow 0.00 in - T in (1982)
Month to date snowfall T  
Since 1 July snowfall 27.5  
Snow Depth 0.00 in    
Sea Level Pressure  
Sea Level Pressure 30.19 in    
Wind  
Wind Speed 8 mph (NE)    
Max Wind Speed 22 mph    
Max Gust Speed 30 mph    
Visibility 10 miles    
Events      
T = Trace of Precipitation, MM = Missing Value Source: NWS Daily Summary

Daily Weather History Graph

Daily Weather History Graph

Search for Another Location

Airport or City:

Trip Planner

Search our weather history database for the weather conditions in past years. The results will help you decide how hot, cold, wet, or windy it might be!

Date:

Astronomy

May. 11, 2013 Rise Set
Actual Time 6:43 AM CDT 8:40 PM CDT
Civil Twilight 6:15 AM CDT 9:09 PM CDT
Nautical Twilight 5:41 AM CDT 9:43 PM CDT
Astronomical Twilight 5:04 AM CDT 10:19 PM CDT
Moon 7:53 AM CDT (5/11) 10:21 PM CDT (5/11)
Length of Visible Light 14h 53m
Length of Day
13h 57m
Waxing Crescent, 3% of the Moon is Illuminated
May 11
Waxing Crescent
May 17
First Quarter
May 24
Full
May 31
Last Quarter
Jun 8
New

Hourly Weather History & Observations

Time (CDT) Temp. Dew Point Humidity Pressure Visibility Wind Dir Wind Speed Gust Speed Precip Events Conditions
12:51 AM 55.9 °F 45.0 °F 67% 30.17 in 10.0 mi SW 3.5 mph - N/A   Clear
1:51 AM 54.0 °F 46.0 °F 75% 30.17 in 10.0 mi West 4.6 mph - N/A   Clear
2:51 AM 54.0 °F 46.0 °F 75% 30.16 in 10.0 mi WSW 4.6 mph - N/A   Mostly Cloudy
3:51 AM 55.0 °F 43.0 °F 64% 30.15 in 10.0 mi WSW 4.6 mph - N/A   Mostly Cloudy
4:51 AM 53.1 °F 44.1 °F 71% 30.17 in 10.0 mi West 5.8 mph - N/A   Overcast
5:51 AM 50.0 °F 43.0 °F 77% 30.17 in 10.0 mi West 6.9 mph - N/A   Clear
6:51 AM 48.9 °F 43.0 °F 80% 30.18 in 10.0 mi West 4.6 mph - N/A   Clear
7:51 AM 50.0 °F 44.1 °F 80% 30.21 in 10.0 mi Calm Calm - N/A   Clear
8:51 AM 55.9 °F 44.1 °F 64% 30.22 in 10.0 mi Calm Calm - N/A   Clear
9:51 AM 61.0 °F 45.0 °F 56% 30.22 in 10.0 mi Calm Calm - N/A   Clear
10:51 AM 66.9 °F 45.0 °F 45% 30.21 in 10.0 mi North 5.8 mph - N/A   Clear
11:51 AM 71.1 °F 42.1 °F 35% 30.21 in 10.0 mi NE 8.1 mph - N/A   Clear
12:51 PM 72.0 °F 39.9 °F 31% 30.20 in 10.0 mi ENE 11.5 mph 18.4 mph N/A   Scattered Clouds
1:51 PM 73.0 °F 36.0 °F 26% 30.19 in 10.0 mi ENE 9.2 mph 29.9 mph N/A   Scattered Clouds
2:51 PM 75.9 °F 37.0 °F 24% 30.19 in 10.0 mi North 13.8 mph 24.2 mph N/A   Scattered Clouds
3:51 PM 75.0 °F 37.9 °F 26% 30.18 in 10.0 mi NE 15.0 mph 21.9 mph N/A   Mostly Cloudy
4:51 PM 73.0 °F 41.0 °F 31% 30.18 in 10.0 mi ENE 16.1 mph 19.6 mph 0.02 in   Mostly Cloudy
5:51 PM 73.9 °F 39.9 °F 29% 30.19 in 10.0 mi ENE 11.5 mph - N/A   Partly Cloudy
6:51 PM 73.0 °F 39.9 °F 30% 30.19 in 10.0 mi NE 15.0 mph 20.7 mph N/A   Clear
7:51 PM 70.0 °F 39.9 °F 33% 30.20 in 10.0 mi ENE 11.5 mph - N/A   Clear
8:51 PM 66.9 °F 41.0 °F 39% 30.20 in 10.0 mi East 8.1 mph - N/A   Clear
9:51 PM 64.0 °F 42.1 °F 45% 30.21 in 10.0 mi ESE 9.2 mph - N/A   Clear
10:51 PM 62.1 °F 41.0 °F 46% 30.22 in 10.0 mi SE 6.9 mph - N/A   Clear
11:51 PM 60.1 °F 41.0 °F 49% 30.23 in 10.0 mi SE 6.9 mph - N/A   Clear